STARLINK-1408 (45688 NORAD) Tracking and Keplerian Element Data

This shows tracking and keplerian element data for the satellite.

Feedback or suggestion? Click here.




ElementValue
Catalog45688
NameSTARLINK-1408
Epoch Orbit182
Epoch Day191.91670139
Epoch Year2020
RAAN351.9779
Inclination53.0007
Eccentricity0.0006253
Argument of Perigee319.1259
Mean Anonmoly264.9167
Mean Motion15.62739183
Decay Rate0.00056523
L11 45688U 20035AH 20191.91670139 .00056523 00000-0 61868-3 0 9993
L22 45688 53.0007 351.9779 0006253 319.1259 264.9167 15.62739183 1826

Live tracking and technical data element details for STARLINK-1408 (NORAD 45688). STARLINK-1408 can be tracked NOW for your location showing map with azimuth and elevation plus other details from your city location.

Track the satellite on the map from your city or location and see movement details for azimuth, elevation, latitude, longitude, range, height, and movement on the map or in text.







IsCatalogInMostPopularTable: catalog: 45688, numindb: 5
Update: records affected: 1



GetName: 45688 STARLINK-1408

Hit Count: updated at: Fri, 10 Jul 2020 15:37:27 GMT